Probability
0 0 0 0 0 0 0 0 0 0 0 0 0 0 0 0 0 0 0 0 0 0 0 0 0 0 0 0 0 0 0 0 0 0 0 0 0 0
0 0 0 0 0 0 0 0 0 0 0 0 0 0 0 0 0 0 0 0 0 0 0 0 0 0 0 0 0 0 0 0 0 0 0 0 0 0
0 0 0 0 0 0 0 0 0 0 0 0 0 0 0 0 0 0 0 0 0 0 0 0 0 0 0 0 0 0 0 0 0 0 0 0 0 0
0 0 0 0 0 0 0 0 0 0 0 0 0 0 0 0 0 0 0 0 0 0 0 0 0 0 0 0 0 0 0 0 0 0 0 0 0 0
0 0 0 0 0 0 0 0 0 0 0 0 0 0 0 0 0 0 0 0 0 0 0 0 0 0 0 0 0 0 0 0 0 0 0 0 0 0
0 0 0 0 0 0 0 0 0 0 0 0 0 0 0 0 0 0 0 0 0 0 0 0 0 0 0 0 0 0 0 0 0 0 0 0 0 0
0 0 0 0 0 0 0 0 0 0 0 0 0 0 0 0 0 0 0 0 0 0 0 0 0 0 0 0 0 0 0 0 0 0 0 0 0 0
0 0 0 0 0 0 0 0 0 0 0 0 0 0 0 0 0 0 0 0 0 0 0 0 0 0 0 0 0 0 0 0 0 0 0 0 0 0
0 0 0 0 0 0 0 0 0 0 0 0 0 0 0 0 0 0 0 0 0 0 0 0 0 0 0 0 0 0 0 0 0 0 0 0 0 0
0 0 0 0 0 0 0 0 0 0 0 0 0 0 0 0 0 0 0 0 0 0 0 0 0 0 0 0 0 0 0 0 0 0 0 0 0 0
0 0 0 0 0 0 0 0 0 0 0 0 0 0 0 0 0 0 0 0 0 0 0 0 0 0 0 0 0 0 0 0 0 0 0 0 0 0
0 0 0 0 0 0 0 0 0 0 0 0 0 0 0 0 0 0 0 0 0 0 0 0 0 0 0 0 0 0 0 0 0 0 0 0 0 0
0 0 0 0 0 0 0 0 0 0 0 0 0 0 0 0 0 0 0 0 0 0 0 0 0 0 0 0 0 0 0 0 0 0 0 0 0 0
0 0 0 0 0 0 0 0 0 0 0 0 0 0 0 0 0 0 0 0 0 0 0 0 0 0 0 0 0 0 0 0 0 0 0 0 0 0
0 0 0 0 0 0 0 0 0 0 0 0 0 0 0 0 0 0 0 0 0 0 0 0 0 0 0 0 0 0 0 0 0 0 0 0 0 0
0 0 0 0 0 0 0 0 0 0 0 0 0 0 0 0 0 0 0 0 0 0 0 0 0 0 0 0 0 0 0 0 0 0 0 0 0 0
0 0 0 0 0 0 0 0 0 0 0 0 0 0 0 0 0 0 0 0 0 0 0 0 0 0 0 0 0 0 0 0 0 0 0 0 0 0
0 0 0 0 0 0 0 0 0 0 0 0 0 0 0 0 0 0 0 0 0 0 0 0 0 0 0 0 0 0 0 0 0 0 0 0 0 0
0 0 0 0 0 0 0 0 0 0 0 0 0 0 0 0 0 0 0 0 0 0 0 0 0 0 0 0 0 0 0 0 0 0 0 0 0 0
0 0 0 0 0 0 0 0 0 0 0 0 0 0 0 0 0 0 0 0 0 0 0 0 0 0 0 0 0 0 0 0 0 0 0 0 0 0
0 0 0 0 0 0 0 0 0 0 0 0 0 0 0 0 0 0 0 0 0 0 0 0 0 0 0 0 0 0 0 0 0 0 0 0 0 0
0 0 0 0 0 0 0 0 0 0 0 0 0 0 0 0 0 0 0 0 0 0 0 0 0 0 0 0 0 0 0 0 0 0 0 0 0 0
0 0 0 0 0 0 0 0 0 0 0 0 0 0 0 0 0 0 0 0 0 0 0 0 0 0 0 0 0 0 0 0 0 0 0 0 0 0
Height
5628 5628 5627 5627 5626 5625 5624 5623 5624 5625 5627 5626 5625 5625 5624 5624 5623 5622 5622 5621 5620 5619 5618 5617 5616 5615 5613 5612 5611 5610 5609 5609 5608 5608 5607 5607 5606 5606
5614 5613 5613 5612 5611 5610 5609 5608 5608 5609 5611 5612 5611 5610 5609 5609 5608 5608 5607 5606 5606 5605 5604 5603 5602 5600 5599 5598 5597 5596 5596 5595 5594 5594 5593 5593 5592 5592
5599 5599 5598 5597 5596 5595 5594 5594 5593 5593 5595 5597 5596 5595 5595 5595 5594 5594 5593 5592 5592 5591 5590 5589 5588 5586 5585 5584 5583 5583 5582 5581 5581 5580 5580 5579 5578 5578
5585 5583 5583 5582 5581 5581 5580 5579 5579 5579 5580 5581 5582 5581 5581 5581 5580 5580 5579 5578 5578 5577 5576 5576 5575 5573 5572 5571 5570 5569 5568 5568 5567 5567 5566 5566 5566 5564
5570 5569 5568 5567 5567 5566 5566 5566 5566 5566 5566 5567 5568 5568 5568 5567 5567 5567 5566 5565 5564 5564 5563 5562 5562 5560 5559 5558 5557 5556 5555 5555 5555 5554 5553 5553 5552 5552
5555 5554 5554 5553 5552 5552 5552 5552 5552 5552 5552 5553 5554 5554 5554 5553 5553 5553 5553 5552 5551 5550 5550 5549 5549 5548 5547 5546 5545 5544 5543 5542 5541 5541 5541 5541 5541 5540
5542 5541 5540 5539 5538 5538 5538 5539 5539 5539 5540 5540 5541 5541 5541 5540 5540 5539 5540 5539 5539 5538 5538 5538 5537 5536 5535 5534 5533 5532 5531 5531 5530 5530 5529 5530 5530 5530
5529 5527 5527 5526 5526 5526 5526 5526 5527 5527 5528 5528 5528 5528 5529 5528 5527 5527 5527 5527 5528 5528 5527 5527 5526 5525 5525 5524 5523 5522 5521 5520 5520 5520 5520 5519 5519 5519
5516 5515 5514 5514 5514 5514 5514 5514 5515 5515 5516 5516 5516 5516 5517 5517 5516 5516 5515 5515 5516 5516 5515 5516 5515 5515 5514 5513 5513 5512 5512 5511 5511 5511 5510 5510 5509 5509
5504 5503 5503 5502 5502 5503 5503 5504 5504 5504 5504 5504 5505 5505 5504 5504 5504 5504 5504 5504 5505 5504 5504 5505 5506 5505 5505 5504 5504 5503 5503 5503 5502 5502 5502 5501 5501 5500
5493 5492 5492 5492 5492 5492 5493 5494 5494 5494 5493 5493 5493 5493 5493 5493 5493 5494 5494 5494 5495 5495 5495 5495 5496 5496 5496 5496 5495 5495 5495 5494 5494 5494 5493 5493 5492 5492
5484 5483 5482 5482 5482 5482 5483 5484 5484 5483 5483 5483 5482 5482 5482 5482 5482 5483 5484 5484 5485 5486 5486 5487 5487 5487 5488 5488 5487 5487 5486 5486 5486 5485 5485 5485 5484 5484
5475 5474 5473 5472 5472 5473 5473 5473 5473 5473 5473 5473 5473 5473 5473 5473 5473 5474 5474 5475 5476 5477 5478 5478 5479 5479 5479 5480 5480 5479 5479 5478 5478 5478 5477 5477 5477 5477
5467 5466 5465 5464 5464 5464 5464 5464 5464 5464 5464 5464 5464 5464 5464 5464 5464 5465 5465 5466 5467 5468 5469 5470 5470 5471 5471 5472 5472 5472 5471 5470 5470 5470 5470 5470 5470 5470
5460 5459 5458 5457 5457 5457 5457 5457 5456 5456 5456 5456 5456 5456 5456 5456 5456 5456 5457 5458 5459 5460 5461 5462 5463 5463 5464 5464 5465 5465 5464 5464 5464 5464 5464 5464 5464 5464
5454 5453 5452 5452 5451 5451 5450 5450 5449 5449 5449 5449 5449 5449 5448 5448 5449 5449 5450 5451 5452 5453 5453 5454 5455 5456 5457 5457 5458 5458 5458 5458 5458 5458 5458 5458 5458 5458
5450 5449 5448 5447 5446 5445 5445 5444 5443 5443 5443 5443 5442 5442 5442 5442 5442 5443 5443 5444 5445 5446 5447 5448 5449 5450 5451 5451 5452 5452 5453 5453 5453 5453 5453 5453 5453 5453
5445 5444 5443 5442 5441 5440 5439 5438 5438 5438 5437 5437 5437 5436 5436 5437 5437 5437 5438 5439 5440 5441 5442 5443 5444 5445 5446 5447 5447 5448 5448 5448 5448 5448 5448 5449 5449 5449
5441 5440 5438 5437 5436 5435 5434 5433 5433 5432 5432 5432 5432 5431 5431 5432 5432 5433 5433 5434 5435 5436 5437 5438 5439 5441 5442 5443 5443 5443 5444 5444 5444 5444 5445 5445 5445 5445
5436 5435 5434 5432 5431 5430 5429 5428 5428 5427 5427 5427 5427 5427 5427 5427 5428 5428 5429 5430 5431 5432 5433 5434 5435 5436 5437 5439 5439 5440 5440 5440 5440 5441 5441 5442 5442 5442
5432 5431 5429 5428 5426 5425 5424 5424 5423 5423 5422 5422 5422 5423 5423 5424 5424 5424 5425 5426 5427 5428 5429 5430 5431 5432 5433 5434 5435 5436 5437 5437 5437 5438 5438 5439 5440 5440
5428 5426 5425 5423 5422 5421 5420 5419 5418 5418 5418 5418 5418 5419 5419 5419 5420 5420 5421 5422 5423 5424 5426 5427 5427 5428 5429 5430 5431 5433 5433 5434 5434 5435 5435 5436 5437 5437
5424 5422 5421 5419 5418 5417 5416 5415 5414 5414 5414 5414 5414 5414 5415 5415 5416 5416 5417 5418 5420 5421 5422 5423 5424 5425 5426 5427 5429 5430 5431 5431 5432 5433 5434 5434 5434 5435
Wind_Speed
53 53 54 54 53 53 54 54 53 52 51 52 52 52 52 52 53 53 52 52 52 51 50 50 50 50 50 50 51 51 51 50 50 50 49 49 49 49
52 53 53 53 53 53 52 52 53 53 52 50 51 51 51 52 52 52 52 51 51 50 50 50 49 49 49 49 49 50 50 49 49 48 48 48 48 48
52 52 52 53 52 52 52 51 52 52 51 50 50 50 50 50 50 50 50 49 50 50 49 49 49 49 49 48 48 48 48 49 49 48 48 47 47 47
51 52 52 52 51 51 51 50 49 49 49 48 48 48 48 49 49 49 49 48 48 48 48 49 48 48 48 47 47 47 46 46 47 47 47 47 46 46
50 50 50 50 50 50 50 49 48 48 48 47 46 47 47 47 48 48 48 48 49 48 48 47 46 45 45 44 45 45 45 45 45 46 46 45 44 44
47 47 47 47 48 48 47 47 46 46 45 45 45 44 45 46 46 46 46 46 46 45 45 44 43 43 42 42 42 43 43 43 43 42 42 42 41 41
45 45 45 45 44 45 44 44 44 43 43 44 43 42 43 44 44 44 43 43 43 43 43 42 42 41 40 40 40 40 39 39 38 38 38 39 38 39
43 43 43 42 42 42 42 41 41 42 42 42 41 40 41 42 42 41 41 40 40 40 40 39 39 38 38 37 37 37 36 36 36 35 35 36 37 37
41 40 40 40 40 40 40 40 39 40 40 41 40 39 39 39 40 39 38 38 37 37 37 36 36 35 35 35 34 34 33 33 34 34 34 34 34 34
37 37 37 38 39 38 38 38 38 38 38 39 39 39 38 38 37 35 35 35 34 34 34 33 33 33 33 33 32 31 32 32 32 32 31 31 32 32
35 35 36 36 36 36 36 36 36 36 37 37 37 38 37 36 36 35 33 33 32 32 32 32 31 31 32 31 31 31 31 31 30 29 29 29 29 29
32 33 33 34 35 35 34 34 34 34 35 35 35 35 34 34 34 33 32 31 30 30 30 29 29 29 30 30 30 29 29 28 27 27 27 27 27 26
29 29 30 31 31 32 32 33 32 32 32 32 32 32 32 32 32 32 31 30 30 29 28 28 27 27 28 27 27 27 27 27 26 26 25 25 24 24
27 27 27 27 27 28 28 28 28 28 28 29 29 29 30 30 29 29 28 28 28 27 26 26 26 26 26 25 24 24 24 24 24 23 23 22 22 22
24 23 24 24 24 24 25 25 25 26 26 26 26 27 27 27 26 26 25 25 25 25 25 24 24 24 24 23 23 22 21 20 21 20 21 21 21 20
20 20 20 21 22 23 23 23 23 24 24 24 24 24 24 23 23 23 23 23 23 22 22 22 22 22 22 21 20 19 18 18 18 18 19 19 18 18
18 18 19 20 20 21 21 21 21 21 21 21 21 21 20 20 19 19 20 20 19 19 19 19 18 18 18 17 17 17 17 17 17 16 16 16 16 17
16 17 17 18 18 18 19 19 19 19 19 19 18 18 17 17 16 16 16 16 17 17 16 16 15 15 15 15 16 16 16 16 16 15 15 15 15 16
16 16 17 17 17 17 17 17 17 17 17 17 17 16 15 15 15 14 15 15 15 15 15 14 14 14 14 14 14 14 14 13 14 14 14 14 13 12
16 16 16 16 16 16 16 16 17 16 16 16 15 14 14 14 14 14 14 14 14 14 13 13 13 13 13 13 13 13 13 12 12 12 12 11 10 10
16 16 16 16 16 15 15 15 15 16 15 15 14 14 14 14 13 13 13 13 12 12 12 11 12 12 12 12 12 11 11 11 11 10 10 9 9 9
15 15 15 14 14 14 14 14 15 15 15 14 14 14 14 14 13 12 12 11 11 11 11 11 11 11 11 11 10 10 10 10 9 9 9 8 8 8
15 15 14 14 14 13 13 13 13 13 12 13 13 13 13 13 12 12 12 11 11 11 11 11 10 10 9 9 9 8 8 8 8 8 8 8 8 8
Wind_Direction
273 273 274 275 275 276 276 275 274 273 272 272 272 273 274 274 274 274 274 274 275 275 275 275 276 276 276 275 274 274 274 275 274 274 274 275 274 274
273 273 274 275 275 275 276 275 274 274 273 272 272 273 273 274 275 275 274 275 274 274 274 275 275 276 276 276 275 275 275 274 274 274 274 274 274 274
274 273 274 275 275 275 275 275 275 274 274 273 273 272 273 274 275 275 275 275 274 274 274 274 276 276 276 276 275 274 275 274 274 274 274 274 274 274
274 274 274 275 275 274 274 274 274 274 273 273 273 272 272 273 273 274 274 274 275 275 274 274 275 275 275 274 274 274 274 274 274 274 274 274 274 274
275 275 275 275 274 273 273 273 273 273 273 274 274 272 272 272 273 273 274 273 274 274 273 274 275 276 275 275 275 274 273 274 274 274 274 273 272 273
275 275 275 274 274 273 272 272 272 272 273 274 274 272 272 272 272 273 274 274 273 273 273 274 275 276 276 276 276 275 275 276 275 274 273 272 272 272
276 275 275 275 273 272 271 271 271 271 273 274 273 273 274 273 273 274 274 273 272 272 272 273 274 274 275 277 277 277 277 276 275 274 274 273 273 272
277 275 274 273 273 272 271 271 271 271 272 273 273 274 275 274 274 274 274 273 272 272 271 272 273 274 275 277 277 275 276 275 275 275 274 274 273 272
277 275 273 271 272 272 270 270 271 273 273 273 273 274 275 276 275 274 273 272 272 271 271 271 272 274 275 277 276 275 274 275 275 276 276 276 275 274
277 275 273 272 271 270 270 270 271 273 273 274 273 274 275 276 276 274 272 273 272 271 271 272 272 273 275 277 276 275 274 274 275 277 276 276 276 275
278 275 273 271 270 270 270 270 272 273 274 274 275 275 276 275 274 273 273 273 271 271 272 273 272 273 274 275 276 275 275 274 273 274 274 275 276 275
278 275 273 272 270 270 270 271 273 274 273 274 274 274 275 274 273 271 272 272 271 270 270 271 272 273 273 274 275 275 275 274 273 273 273 274 275 275
280 277 275 273 272 270 270 271 273 273 274 274 273 274 274 274 272 270 270 270 270 269 269 270 271 274 275 274 275 275 274 274 275 275 274 275 275 275
282 280 278 275 274 273 273 273 272 272 273 273 273 274 274 273 272 271 269 269 269 270 270 269 270 272 273 274 273 274 275 277 277 277 277 277 277 278
285 283 280 277 276 276 276 275 273 273 273 273 274 275 275 274 272 269 267 267 267 267 267 267 269 269 272 273 274 275 276 276 277 277 277 278 278 279
288 285 282 280 278 278 277 276 276 275 274 274 275 275 276 275 270 266 264 264 265 265 264 265 266 268 268 270 273 274 275 277 278 278 278 279 280 281
289 289 286 283 282 280 279 278 278 277 276 276 275 276 275 273 269 266 263 262 263 262 261 260 262 264 266 269 273 274 275 277 280 281 279 278 278 280
293 294 291 288 285 283 281 281 280 280 278 276 276 276 273 269 268 268 265 263 261 260 261 260 261 260 267 271 273 274 274 275 278 280 280 279 281 283
296 296 295 292 287 285 284 283 283 281 278 277 277 275 269 266 265 264 263 261 260 260 259 258 260 262 265 267 270 272 275 275 278 278 279 281 281 281
300 300 299 295 290 286 284 283 282 279 277 276 275 273 268 266 264 262 258 256 258 258 256 256 259 261 263 264 265 268 273 277 278 280 279 278 276 275
301 301 302 299 294 288 284 282 281 279 276 275 273 269 267 265 263 260 258 257 255 254 254 256 261 262 263 263 261 261 267 275 277 275 274 272 270 274
302 303 302 300 298 294 288 285 283 279 275 272 269 266 265 262 260 260 259 256 251 251 253 258 262 260 259 259 261 263 266 270 271 271 271 271 273 274
305 305 302 299 300 299 295 291 286 281 275 270 268 266 263 260 258 257 253 251 248 248 253 256 256 253 253 256 260 257 256 259 266 273 273 271 271 271